CW3583 Weather Reports


Display with metric or nautical units.
time (UTC)temp
F
wind
direction
speed
MPH
gust
MPH
rain 1hr
in
rain 24hr
in
rain mn
in
humidity
%
barometer
mb
20260503184303 61 35 6.0 8.0 0.00 0.06 0.06 89 1011.3
20260503182305 62 21 6.0 8.0 0.00 0.06 0.06 89 1011.4
20260503180804 61 6 6.0 7.0 0.00 0.06 0.06 89 1011.5
20260503180306 61 347 5.0 8.0 0.00 0.06 0.06 89 1011.5
20260503175803 61 13 7.0 9.0 0.00 0.06 0.06 89 1011.5
20260503175304 61 12 6.0 9.0 0.00 0.06 0.06 90 1011.5
20260503173803 61 356 8.0 12.0 0.00 0.06 0.06 90 1011.4
20260503171806 61 349 8.0 9.0 0.00 0.06 0.06 90 1011.6
20260503171304 61 352 7.0 9.0 0.00 0.06 0.06 91 1011.6
20260503170306 62 348 6.0 7.0 0.00 0.06 0.06 91 1011.7
20260503131304 63 19 7.0 12.0 0.00 0.27 0.03 87 1012.1
20260503080803 60 344 1.0 3.0 0.00 0.35 0.03 95 1013.6
20260503072803 59 201 0.0 1.0 0.00 0.44 0.03 95 1013.3
20260503071303 58 201 1.0 3.0 0.00 0.44 0.03 95 1013.3
20260503070804 57 201 0.0 1.0 0.00 0.44 0.03 95 1013.3
20260503060306 56 190 1.0 2.0 0.00 0.44 0.03 94 1013.1
20260503053804 56 174 3.0 6.0 0.00 0.44 0.03 94 1013.0
20260503053307 56 141 5.0 8.0 0.00 0.44 0.03 94 1013.0
20260503051303 57 180 2.0 3.0 0.00 0.44 0.03 94 1013.0
20260503050803 57 173 2.0 3.0 0.00 0.44 0.03 94 1013.0
20260503045305 56 180 2.0 3.0 0.00 0.44 0.03 94 1013.0
20260503044806 56 170 2.0 5.0 0.00 0.44 0.03 94 1013.1
20260503043804 57 176 2.0 3.0 0.00 0.44 0.03 94 1012.9
20260503041807 57 201 3.0 5.0 0.00 0.44 0.03 94 1012.9
20260503040306 57 206 3.0 6.0 0.00 0.44 0.03 94 1012.9
20260503034806 57 197 3.0 3.0 0.00 0.44 0.03 94 1013.1
20260503032803 58 204 3.0 5.0 0.00 0.44 0.03 94 1013.1
20260503031304 58 192 2.0 3.0 0.00 0.44 0.03 94 1013.1
20260503030803 58 183 2.0 3.0 0.00 0.44 0.03 94 1013.1
20260503025803 58 171 2.0 3.0 0.00 0.44 0.03 94 1013.2
20260503025305 58 207 2.0 3.0 0.00 0.44 0.03 94 1013.2
20260503023306 58 197 1.0 3.0 0.00 0.44 0.03 94 1013.3
20260503022803 58 197 2.0 3.0 0.00 0.44 0.03 94 1013.3
20260503022305 58 201 2.0 3.0 0.00 0.44 0.03 94 1013.3
20260503021806 58 206 3.0 5.0 0.00 0.44 0.03 93 1013.4
20260503020306 58 212 2.0 3.0 0.00 0.44 0.03 93 1013.4
20260503015803 58 197 3.0 6.0 0.00 0.44 0.03 93 1013.6
20260503015305 58 225 3.0 5.0 0.00 0.44 0.03 93 1013.6
20260503013305 59 157 0.0 0.0 0.00 0.44 0.03 93 1013.6
20260503012803 59 157 0.0 3.0 0.00 0.44 0.03 93 1013.6
20260503012305 59 157 1.0 3.0 0.00 0.44 0.03 93 1013.7
20260503011304 59 157 0.0 3.0 0.00 0.44 0.03 93 1014.0
20260503001805 59 209 0.0 3.0 0.03 0.44 0.03 93 1014.3
20260502235803 60 209 2.0 3.0 0.03 0.44 0.03 93 1014.4
20260502234807 60 210 2.0 3.0 0.03 0.44 0.03 93 1014.4
20260502233803 60 249 1.0 3.0 0.02 0.43 0.02 93 1014.5
20260502232803 60 240 4.0 5.0 0.02 0.43 0.02 93 1014.5
20260502230806 60 235 3.0 5.0 0.00 0.41 0.00 93 1014.5
20260502225803 60 228 4.0 7.0 0.00 0.41 0.00 93 1014.5
20260502224806 60 238 3.0 5.0 0.00 0.41 0.00 93 1014.5
20260502223804 60 238 2.0 3.0 0.00 0.41 0.00 93 1014.5
20260502223306 60 238 2.0 3.0 0.00 0.41 0.00 93 1014.6
20260502215305 59 239 3.0 5.0 0.00 0.41 0.41 93 1014.6
20260502214806 60 239 3.0 5.0 0.00 0.41 0.41 93 1014.6
20260502213803 60 239 3.0 6.0 0.00 0.41 0.41 93 1014.7
20260502213307 60 239 4.0 6.0 0.00 0.41 0.41 93 1014.7
20260502210804 60 195 2.0 3.0 0.00 0.41 0.41 93 1014.7
20260502210306 60 180 3.0 3.0 0.00 0.41 0.41 93 1014.8
20260502205305 60 208 2.0 5.0 0.00 0.41 0.41 93 1014.8
20260502203306 60 215 3.0 5.0 0.00 0.41 0.41 93 1014.7
20260502202305 60 219 5.0 9.0 0.00 0.41 0.41 93 1014.7
20260502201807 60 208 3.0 7.0 0.00 0.41 0.41 93 1014.6
20260502201303 60 227 4.0 7.0 0.00 0.41 0.41 92 1014.6
20260502195803 60 257 6.0 9.0 0.00 0.41 0.41 92 1014.6
20260502194805 60 249 6.0 9.0 0.00 0.41 0.41 92 1014.6
20260502193305 60 268 6.0 8.0 0.00 0.41 0.41 92 1014.6
20260502185804 61 254 3.0 6.0 0.00 0.41 0.41 93 1014.2